FW5772 Weather Reports


time (UTC)temp
F
wind
direction
speed
knots
gust
knots
rain 1hr
in
rain 24hr
in
rain mn
in
humidity
%
barometer
mb
20260508151550 65 98 4.3 7.8 0.00 0.00 0.00 33 1010.7
20260508150047 64 86 3.5 7.8 0.00 0.00 0.00 35 1010.8
20260508144546 62 112 4.3 7.8 0.00 0.00 0.00 37 1011.1
20260508143103 60 128 1.7 6.1 0.00 0.00 0.00 39 1011.2
20260508141551 58 123 0.9 3.5 0.00 0.00 0.00 42 1011.1
20260508140044 56 116 1.7 5.2 0.00 0.00 0.00 43 1011.2
20260508134544 55 123 2.6 6.1 0.00 0.00 0.00 44 1011.2
20260508133043 53 126 3.5 7.0 0.00 0.00 0.00 44 1011.2
20260508131543 52 125 2.6 8.7 0.00 0.00 0.00 45 1011.1
20260508130041 52 143 1.7 3.5 0.00 0.00 0.00 44 1010.9
20260508124540 52 125 2.6 5.2 0.00 0.00 0.00 43 1010.8
20260508123045 52 135 1.7 5.2 0.00 0.00 0.00 43 1010.7
20260508121539 50 142 2.6 4.3 0.00 0.00 0.00 44 1010.7
20260508120038 50 161 1.7 6.1 0.00 0.00 0.00 45 1010.6
20260508114537 50 148 1.7 4.3 0.00 0.00 0.00 45 1010.6
20260508113034 52 132 1.7 3.5 0.00 0.00 0.00 42 1010.6
20260508111531 54 139 1.7 4.3 0.00 0.00 0.00 40 1010.5
20260508110034 53 122 1.7 3.5 0.00 0.00 0.00 40 1010.6
20260508104530 53 130 1.7 4.3 0.00 0.00 0.00 39 1010.5
20260508103039 54 150 1.7 5.2 0.00 0.00 0.00 39 1010.5
20260508101527 54 152 1.7 4.3 0.00 0.00 0.00 38 1010.5
20260508100032 54 140 1.7 7.0 0.00 0.00 0.00 39 1010.5
20260508094525 54 144 0.0 2.6 0.00 0.00 0.00 40 1010.5
20260508093030 54 143 2.6 4.3 0.00 0.00 0.00 39 1010.6
20260508091519 55 190 0.9 1.7 0.00 0.00 0.00 38 1010.6
20260508090018 55 190 0.0 3.5 0.00 0.00 0.00 38 1010.7
20260508084517 56 212 1.7 2.6 0.00 0.00 0.00 38 1010.7
20260508083014 57 213 0.0 1.7 0.00 0.00 0.00 36 1010.8
20260508081511 58 213 0.0 4.3 0.00 0.00 0.00 35 1010.9
20260508080011 58 153 0.0 2.6 0.00 0.00 0.00 34 1011.0
20260508074510 58 146 0.9 3.5 0.00 0.00 0.00 34 1011.0
20260508073009 58 144 1.7 5.2 0.00 0.00 0.00 35 1011.1
20260508071508 58 160 0.0 4.3 0.00 0.00 0.00 35 1011.4
20260508070005 58 109 0.0 3.5 0.00 0.00 0.00 35 1011.1
20260508064502 59 65 1.7 3.5 0.00 0.00 0.00 34 1011.1
20260508063100 61 55 2.6 5.2 0.00 0.00 0.00 32 1011.0
20260508061602 63 198 0.0 1.7 0.00 0.00 0.00 29 1010.9
20260508060110 63 195 0.9 4.3 0.00 0.00 0.00 29 1010.7
20260508054638 63 219 0.9 2.6 0.00 0.00 0.00 29 1011.0
20260508053055 64 200 0.0 4.3 0.00 0.00 0.00 29 1011.3
20260508051552 65 234 0.0 2.6 0.00 0.00 0.00 28 1011.3
20260508050051 65 234 0.9 2.6 0.00 0.00 0.00 28 1011.3
20260508044552 64 238 2.6 4.3 0.00 0.00 0.00 28 1011.4
20260508043057 65 238 0.9 3.5 0.00 0.00 0.00 27 1011.5
20260508041553 66 254 0.0 1.7 0.00 0.00 0.00 27 1011.5
20260508040050 66 257 1.7 6.1 0.00 0.00 0.00 27 1011.5
20260508034552 66 257 2.6 5.2 0.00 0.00 0.00 26 1011.6
20260508033050 67 260 0.0 0.9 0.00 0.00 0.00 26 1011.2
20260508031555 67 260 0.0 5.2 0.00 0.00 0.00 26 1011.4
20260508030050 68 57 0.0 4.3 0.00 0.00 0.00 26 1011.4
20260508024602 68 15 0.0 1.7 0.00 0.00 0.00 25 1011.3
20260508023048 69 15 0.0 0.9 0.00 0.00 0.00 24 1011.0
20260508021548 69 15 0.0 0.0 0.00 0.00 0.00 24 1011.0
20260508014547 69 15 0.0 0.0 0.00 0.00 0.00 24 1010.9
20260508013045 70 15 0.0 1.7 0.00 0.00 0.00 24 1011.1
20260508011545 71 15 0.9 4.3 0.00 0.00 0.00 23 1011.1
20260508010049 71 5 0.0 4.3 0.00 0.00 0.00 22 1011.2
20260508004542 72 23 0.9 7.0 0.00 0.00 0.00 22 1011.3
20260508003042 72 317 2.6 7.8 0.00 0.00 0.00 22 1011.3
20260508001541 72 5 3.5 7.0 0.00 0.00 0.00 22 1011.5
20260508000038 73 313 2.6 7.8 0.00 0.00 0.00 22 1011.5
20260507234537 71 341 3.5 7.0 0.00 0.00 0.00 22 1011.7
20260507233036 72 46 2.6 8.7 0.00 0.00 0.00 22 1011.5
20260507231542 72 88 1.7 7.8 0.00 0.00 0.00 23 1011.8
20260507230039 72 59 2.6 9.6 0.00 0.00 0.00 22 1012.1
20260507224532 72 34 2.6 6.1 0.00 0.00 0.00 22 1012.3
20260507223028 71 334 3.5 7.8 0.00 0.00 0.00 22 1012.7
20260507221526 71 33 4.3 10.4 0.00 0.00 0.00 22 1012.9
20260507220025 72 298 3.5 8.7 0.00 0.00 0.00 22 1013.2
20260507214521 71 211 0.9 7.8 0.00 0.00 0.00 22 1013.5
20260507213019 69 49 2.6 8.7 0.00 0.00 0.00 23 1014.1
20260507211524 69 15 1.7 5.2 0.00 0.00 0.00 23 1014.4
20260507210014 69 310 4.3 9.6 0.00 0.00 0.00 22 1014.9
20260507204511 69 30 4.3 7.8 0.00 0.00 0.00 22 1015.1
20260507203010 68 301 1.7 7.0 0.00 0.00 0.00 23 1015.6
20260507201510 68 59 5.2 12.2 0.00 0.00 0.00 22 1015.9
20260507200005 67 258 1.7 10.4 0.00 0.00 0.00 22 1016.2
20260507194502 66 355 2.6 7.8 0.00 0.00 0.00 22 1016.5
20260507193100 65 5 4.3 9.6 0.00 0.00 0.00 23 1016.8
20260507191559 65 36 1.7 9.6 0.00 0.00 0.00 23 1017.0
20260507190055 65 44 4.3 9.6 0.00 0.00 0.00 23 1017.5
20260507184552 64 339 0.9 10.4 0.00 0.00 0.00 24 1017.7
20260507183051 64 65 5.2 10.4 0.00 0.00 0.00 24 1018.1
20260507181546 63 339 5.2 10.4 0.00 0.00 0.00 24 1018.6
20260507180053 62 335 6.1 12.2 0.00 0.00 0.00 23 1018.8
20260507174542 62 319 0.9 10.4 0.00 0.00 0.00 23 1019.0
20260507173045 61 309 4.3 8.7 0.00 0.00 0.00 24 1019.1
20260507171544 60 346 1.7 7.0 0.00 0.00 0.00 24 1019.4
20260507170036 60 40 1.7 7.8 0.00 0.00 0.00 25 1019.6
20260507164541 59 126 0.9 8.7 0.00 0.00 0.00 25 1019.7
20260507163037 59 70 2.6 7.8 0.00 0.00 0.00 26 1020.0
20260507161539 58 101 3.5 10.4 0.00 0.00 0.00 27 1020.3
20260507160039 57 91 6.1 13.0 0.00 0.00 0.00 28 1020.2
20260507154523 56 115 7.0 13.9 0.00 0.00 0.00 30 1020.3
20260507153017 54 105 7.8 13.9 0.00 0.00 0.00 32 1020.6